This demonstration page uses our WeatherBlox Daily Observations layout. Learn more.

Left ArrowRight Arrow

39.12711, -84.51439

Hourly Observations for June 23, 2017

Temp ( °F °C ) Dew Point ( °F °C ) Humidity (%) Winds ( mph kmh ) Pressure ( in mb ) Visibility ( mi km ) Precip ( " mm )
12:15 am 00:15 Cloudy with Light Rain 70 21 N/A N/A VRB 6 9 29.88 1012 6 10 0.01 0.25
12:34 am 00:34 Cloudy with Light Rain 70 21 N/A N/A WSW 5 7 29.88 1012 7 11 0.01 0.25
12:53 am 00:53 Cloudy 72 22 N/A N/A SSW 5 7 29.85 1011 10 16 0.01 0.25
1:33 am 01:33 Cloudy 72 22 N/A N/A S 5 7 29.85 1011 10 16 0.00 0.00
1:53 am 01:53 Cloudy 72 22 N/A N/A SSW 3 6 29.83 1010 10 16 0.00 0.00
2:50 am 02:50 Cloudy 72 22 N/A N/A SSW 9 15 29.83 1010 10 16 0.00 0.00
2:53 am 02:53 Cloudy 72 22 N/A N/A SSW 7 11 29.80 1009 10 16 0.00 0.00
3:53 am 03:53 Cloudy 74 23.3 74 23.3 100 100 SSW 12 19 29.78 1008 10 16 0.00 0.00
4:31 am 04:31 Cloudy 74 23.3 74 23.3 100 100 SSW 9 15 29.80 1009 10 16 0.00 0.00
4:45 am 04:45 Cloudy 74 23.3 74 23.3 100 100 SSW 9 15 29.80 1009 10 16 0.00 0.00
4:53 am 04:53 Cloudy 74 23.3 74 23.3 100 100 SSW 10 17 29.77 1008 10 16 0.00 0.00
5:53 am 05:53 Cloudy with Light Rain 74 23.3 74 23.3 100 100 SSW 10 17 29.76 1008 9 14 0.00 0.03
6:53 am 06:53 Cloudy with Light Rain 74 23.3 74 23.3 100 100 SSW 8 13 29.75 1008 9 14 0.01 0.25
7:33 am 07:33 Cloudy with Mist and Fog 75 23.9 74 23.3 96 96 SSW 12 19 29.77 1008 4 6 0.05 1.27
7:53 am 07:53 Cloudy with Light Rain 75 23.9 74 23.3 96 96 SSW 14 22 29.75 1008 8 13 0.06 1.52
8:53 am 08:53 Cloudy with Light Rain 76 24.4 75 23.9 97 97 SSW 12 19 29.75 1008 9 14 0.00 0.03
9:53 am 09:53 Cloudy 78 25.6 75 23.9 90 90 SSW 14 22 29.75 1007 10 16 0.00 0.03
10:53 am 10:53 Mostly Cloudy 78 25.6 74 23.3 87 87 SW 15 24 29.75 1007 10 16 0.00 0.00
11:53 am 11:53 Cloudy 80 26.7 73 22.8 79 79 WSW 14 22 29.72 1007 10 16 0.00 0.03
12:53 pm 12:53 Mostly Cloudy 79 26.1 76 24.4 90 90 SSW 12 19 29.72 1006 10 16 0.06 1.52
1:53 pm 13:53 Cloudy 78 25.6 74 23.3 87 87 WSW 5 7 29.71 1006 10 16 0.00 0.03
2:05 pm 14:05 Cloudy with Nearby Thunderstorms 76 24.4 74 23.3 94 94 W 16 26 29.74 1007 7 11 0.01 0.25
2:14 pm 14:14 Cloudy with Rain 74 23.3 74 23.3 100 100 W 21 33 29.74 1007 5 8 0.03 0.76
2:53 pm 14:53 Cloudy with Heavy Rain 74 23.3 73 22.8 97 97 W 12 19 29.72 1006 1 1 0.18 4.57
3:01 pm 15:01 Cloudy with Heavy Rain 73 22.8 72 22.2 96 96 W 10 17 29.74 1007 2 3 0.09 2.29
3:33 pm 15:33 Cloudy with Nearby Thunderstorms 73 22.8 72 22.2 96 96 NW 10 17 29.71 1006 4 6 0.25 6.35
3:34 pm 15:34 Cloudy with Thunderstorms 73 22.8 72 22.2 96 96 WNW 13 20 29.71 1006 4 6 0.25 6.35
3:53 pm 15:53 Cloudy with Nearby Thunderstorms 73 22.8 72 22.2 96 96 NW 14 22 29.71 1006 2 3 0.33 8.38
4:03 pm 16:03 Cloudy with Heavy Rain 73 22.8 72 22.2 96 96 NNW 9 15 29.71 1006 2 3 0.07 1.78
4:12 pm 16:12 Cloudy with Heavy Rain 72 22.2 71 21.7 97 97 NNW 10 17 29.71 1006 1 1 0.25 6.35
4:16 pm 16:16 Cloudy with Heavy Rain 72 22.2 68 20 87 87 N 10 17 29.74 1007 1 2 0.35 8.89
4:45 pm 16:45 Cloudy with Heavy Rain 68 20 67 19.4 96 96 E 5 7 29.71 1006 2 3 0.91 23.11
4:53 pm 16:53 Cloudy with Heavy Rain 68 20 67 19.4 96 96 Calm 29.72 1006 2 3 0.95 24.13
5:32 pm 17:32 Cloudy with Rain 68 20 68 20 100 100 Calm 29.71 1006 3 5 0.22 5.59
5:53 pm 17:53 Cloudy with Rain 68 20 68 20 100 100 Calm 29.70 1006 3 4 0.25 6.35
6:07 pm 18:07 Cloudy with Rain 68 20 68 20 100 100 Calm 29.71 1006 4 6 0.02 0.51
6:22 pm 18:22 Cloudy with Light Rain 68 20 68 20 100 100 Calm 29.71 1006 6 10 0.04 1.02
6:53 pm 18:53 Mostly Cloudy with Light Rain 68 20 68 20 100 100 S 3 6 29.71 1006 6 10 0.08 2.03
7:53 pm 19:53 Cloudy with Rain 68 20 68 20 100 100 Calm 29.68 1005 4 6 0.09 2.29
8:35 pm 20:35 Partly Cloudy with Mist and Fog 68 20 68 20 100 100 Calm 29.71 1006 4 6 0.09 2.29
8:53 pm 20:53 Partly Cloudy 68 20 68 20 100 100 NNW 5 7 29.71 1006 10 16 0.09 2.29
9:12 pm 21:12 Mostly Cloudy 69 20.6 68 20 96 96 W 3 6 29.74 1007 10 16 0.00 0.00
9:34 pm 21:34 Cloudy 69 20.6 68 20 96 96 SW 3 6 29.77 1008 10 16 0.00 0.00
9:53 pm 21:53 Cloudy with Light Rain 69 20.6 68 20 96 96 Calm 29.76 1008 7 11 0.00 0.03
10:08 pm 22:08 Cloudy with Light Rain 69 20.6 69 20.6 100 100 S 5 7 29.80 1009 8 13 0.00 0.03
10:19 pm 22:19 Cloudy 69 20.6 69 20.6 100 100 S 5 7 29.80 1009 10 16 0.00 0.03
10:38 pm 22:38 Cloudy with Rain 69 20.6 69 20.6 100 100 SSW 7 11 29.83 1010 3 4 0.01 0.25
10:45 pm 22:45 Cloudy with Light Rain 69 20.6 69 20.6 100 100 SW 5 7 29.83 1010 3 5 0.02 0.51
10:53 pm 22:53 Cloudy with Light Rain 69 20.6 69 20.6 100 100 SSW 5 7 29.81 1010 3 5 0.02 0.51
11:10 pm 23:10 Cloudy 69 20.6 69 20.6 100 100 WSW 5 7 29.83 1010 9 14 0.01 0.25
11:19 pm 23:19 Cloudy 69 20.6 69 20.6 100 100 WSW 5 7 29.83 1010 10 16 0.01 0.25
11:53 pm 23:53 Partly Cloudy 70 21.1 68 20 93 93 WNW 5 7 29.85 1011 10 16 0.01 0.25

Powered by AerisWeather